Abja-Paluoja

Estonia     58˚07′48″N   25˚21′12″E
temp.,
°C
wind,
m/s
gust,
m/s
humid.,
%
clouds,
%
prec.,
mm/h
press.,
hPa
HPBL,
m
3 december, thu
thu323:00−3˚sse3684100 0.1 1027609
02:00−3˚sse3681100 0.1 1026622
05:00−2˚sse3682100 0.0 1024688
08:00−2˚se3681100 0.1 1022824
11:00−2˚se467798 0.1 1021769
14:00−3˚se488398 0.1 1020583
17:00−2˚sse4882100 0.1 1019781
20:00−2˚sse4983100 0.1 1019886
4 december, fri
fri423:00−2˚se51083100 0.1 1018865
02:00−1˚se51181100 0.1 1017789
05:00se51281100 0.0 1015799
08:00se51293100 0.2 1015751
11:00+1˚se61488100 1.4 1015750
14:00+2˚sse51382100 1.5 1015855
17:00+3˚sse51385100 0.0 1015837
20:00+3˚sse51384100 0.0 1015875
5 december, sat
sat523:00+3˚sse51384100 0.0 1015886
02:00+3˚sse51386100 0.0 1016885
05:00+4˚sse51486100 0.0 1015860
08:00+5˚sse51486100 0.0 1016839
11:00+5˚sse6158699 0.0 1017766
14:00+5˚sse5138596 0.0 1018768
17:00+5˚sse5148598 0.0 1018770
20:00+6˚sse6148499 0.0 1020768
6 december, sun
sun623:00+5˚sse5128499 0.0 1020870
02:00+5˚sse4128697 0.0 1022722
05:00+5˚sse51285100 0.0 1022696
08:00+5˚sse4128499 0.0 1023695
11:00+4˚sse5118294 0.0 1024770
14:00+4˚sse4118195 0.0 1024767
17:00+2˚se51382100 0.0 1025562
20:00+1˚se41281100 0.0 1026542
7 december, mon
mon723:00−1˚se4127711 0.0 1026563
02:00−1˚se511688 0.0 1026544
05:00−1˚se512690 0.0 1025583
08:00−1˚se512704 0.0 1025572
11:00−1˚se5116545 0.0 1025624
14:00se4116250 0.0 1024623
17:00−1˚se4136348 0.0 1024585
20:00−1˚se4126051 0.0 1024579